Madeira/Funchal Airport

Airport
ICAO code: 
LPMA
IATA Code: 
FNC
Summary
ICAO Region: 
EUR
Territory: 
Location: 
Santa Catarina, Região Autónoma da Madeira
Serving: 
Funchal
Elevation: 
192 ft
Coordinates: 
Aerial View: 
32° 41' 52" N, 16° 46' 28" W
Airport CFIT: 
Runway Visual Perspective
Airport RE: 
Crosswind Landings
Airport WX: 
Low Level Turbulence
Metar
Observation
LPMA 211130Z 04017KT 010V070 9999 SCT013 SCT033 18/15 Q1018
Station
Aeroporto Da Madeira
Date/Time
2022-01-21 11:30:00
Wind direction
40°
Wind speed
17 kts
Lowest cloud amount
scattered clouds
Temperature
18°C
Dew point
15°C
Humidity
82%
QNH
1018 hPa
Weather condition
n/a

Cristiano Ronaldo International Airport, Madeira, commonly known as Madeira Airport or Funchal Airport , is an international airport in the civil parish of Santa Cruz in the Portuguese archipelago and autonomous region of Madeira.

Climatology

Temperate mediterranean climate (Köppen climate classification Csb)

Runways

Designator Length Width Surface Rops
5/23 2777 45 ASP Yes/Yes
Airport map: 
Aerial View: 

SKYbrary Partners:

Safety knowledge contributed by: